• In Hungary
  • List of Countries
  • For 7 days
  • Water Temperature
  • Satellite Maps
  • Weather Map
  • News
  • Weather Widgets
  • user-avatar
    Login

    Hourly Weather Raztoka

    Today, 26 September, Wednesday

    Time Temperature Precipitation Wind Pressure Humidity
    00:00 +4°C° 0 mm 1 mps 735 mmHg 82%
    01:00 +3°C° 0 mm 1 mps 735 mmHg 84%
    02:00 +3°C° 0 mm 1 mps 735 mmHg 84%
    03:00 +3°C° 0 mm 1 mps 735 mmHg 85%
    04:00 +3°C° 0 mm 1 mps 735 mmHg 85%
    05:00 +3°C° 0 mm 2 mps 735 mmHg 82%
    06:00 +3°C° 0 mm 2 mps 736 mmHg 79%
    07:00 +4°C° 0 mm 2 mps 736 mmHg 76%
    08:00 +6°C° 0 mm 2 mps 736 mmHg 66%
    09:00 +8°C° 0 mm 2 mps 736 mmHg 56%
    10:00 +12°C° 0 mm 2 mps 736 mmHg 46%
    11:00 +12°C° 0 mm 3 mps 735 mmHg 43%
    12:00 +12°C° 0 mm 3 mps 735 mmHg 41%
    13:00 +13°C° 0 mm 3 mps 734 mmHg 39%
    14:00 +13°C° 0 mm 3 mps 734 mmHg 41%
    15:00 +13°C° 0 mm 3 mps 733 mmHg 44%
    16:00 +12°C° 0 mm 3 mps 733 mmHg 47%
    17:00 +11°C° 0 mm 3 mps 732 mmHg 51%
    18:00 +10°C° 0 mm 3 mps 732 mmHg 54%
    19:00 +9°C° 0 mm 3 mps 732 mmHg 57%
    20:00 +9°C° 0 mm 3 mps 732 mmHg 58%
    21:00 +8°C° 0 mm 3 mps 732 mmHg 58%
    22:00 +8°C° 0 mm 3 mps 731 mmHg 59%
    23:00 +8°C° 0 mm 3 mps 731 mmHg 57%

    Tomorrow, 27 September, Thursday

    Time Temperature Precipitation Wind Pressure Humidity
    00:00 +7°C° 0 mm 3 mps 731 mmHg 56%
    01:00 +7°C° 0 mm 3 mps 731 mmHg 54%
    02:00 +7°C° 0 mm 3 mps 731 mmHg 54%
    03:00 +7°C° 0 mm 3 mps 730 mmHg 54%
    04:00 +8°C° 0 mm 3 mps 730 mmHg 54%
    05:00 +8°C° 0 mm 3 mps 730 mmHg 54%
    06:00 +9°C° 0 mm 3 mps 730 mmHg 54%
    07:00 +9°C° 0 mm 3 mps 730 mmHg 53%
    08:00 +10°C° 0 mm 3 mps 730 mmHg 53%
    09:00 +12°C° 0 mm 3 mps 730 mmHg 53%
    10:00 +13°C° 0 mm 3 mps 730 mmHg 53%
    11:00 +14°C° 0 mm 3 mps 730 mmHg 54%
    12:00 +16°C° 0 mm 3 mps 730 mmHg 55%
    13:00 +18°C° 0 mm 3 mps 730 mmHg 57%
    14:00 +18°C° 0 mm 3 mps 729 mmHg 59%
    15:00 +18°C° 0 mm 3 mps 729 mmHg 61%
    16:00 +19°C° 0 mm 2 mps 728 mmHg 63%
    17:00 +17°C° 0 mm 2 mps 728 mmHg 69%
    18:00 +15°C° 0 mm 2 mps 728 mmHg 75%
    19:00 +13°C° 0 mm 2 mps 728 mmHg 81%
    20:00 +13°C° 0 mm 2 mps 727 mmHg 82%
    21:00 +13°C° 0 mm 2 mps 727 mmHg 83%
    22:00 +12°C° 0 mm 2 mps 727 mmHg 84%
    23:00 +12°C° 0 mm 2 mps 726 mmHg 84%

    Day after tomorrow, 28 September, Friday

    Time Temperature Precipitation Wind Pressure Humidity
    00:00 +12°C° 0 mm 2 mps 726 mmHg 84%
    01:00 +12°C° 0 mm 2 mps 725 mmHg 85%
    02:00 +11°C° 0 mm 3 mps 725 mmHg 85%
    03:00 +11°C° 0 mm 3 mps 724 mmHg 84%
    04:00 +11°C° 0 mm 3 mps 724 mmHg 84%
    05:00 +11°C° 0 mm 3 mps 724 mmHg 81%
    06:00 +12°C° 0 mm 3 mps 724 mmHg 79%
    07:00 +12°C° 0 mm 3 mps 723 mmHg 76%
    08:00 +14°C° 0 mm 3 mps 724 mmHg 67%
    09:00 +17°C° 0 mm 4 mps 724 mmHg 57%
    10:00 +19°C° 0 mm 4 mps 724 mmHg 48%
    11:00 +19°C° 0 mm 4 mps 723 mmHg 46%
    12:00 +20°C° 0 mm 4 mps 723 mmHg 45%
    13:00 +20°C° 0 mm 4 mps 723 mmHg 43%
    14:00 +20°C° 0 mm 3 mps 723 mmHg 46%
    15:00 +19°C° 0 mm 3 mps 722 mmHg 50%
    16:00 +18°C° 0 mm 3 mps 722 mmHg 53%
    17:00 +16°C° 0 mm 3 mps 722 mmHg 63%
    18:00 +13°C° 0 mm 3 mps 722 mmHg 72%
    19:00 +12°C° 0 mm 2 mps 722 mmHg 81%
    20:00 +12°C° 0 mm 2 mps 723 mmHg 81%
    21:00 +12°C° 0 mm 2 mps 723 mmHg 81%
    22:00 +12°C° 0 mm 2 mps 723 mmHg 81%
    23:00 +10°C° 0.1 mm 2 mps 723 mmHg 81%

    29 September, Saturday

    Time Temperature Precipitation Wind Pressure Humidity
    00:00 +10°C° 0.1 mm 2 mps 724 mmHg 81%
    01:00 +10°C° 0.1 mm 2 mps 724 mmHg 81%
    02:00 +9°C° 0.2 mm 2 mps 724 mmHg 82%
    03:00 +9°C° 0.2 mm 2 mps 724 mmHg 83%
    04:00 +8°C° 0.2 mm 2 mps 724 mmHg 83%
    05:00 +8°C° 0.2 mm 2 mps 724 mmHg 83%
    06:00 +8°C° 0.2 mm 2 mps 725 mmHg 83%
    07:00 +8°C° 0.2 mm 3 mps 725 mmHg 83%
    08:00 +8°C° 0.1 mm 3 mps 726 mmHg 77%
    09:00 +8°C° 0.1 mm 4 mps 726 mmHg 70%
    10:00 +10°C° 0.1 mm 4 mps 726 mmHg 63%
    11:00 +10°C° 0.1 mm 5 mps 727 mmHg 59%
    12:00 +10°C° 0.1 mm 5 mps 727 mmHg 54%
    13:00 +12°C° 0.1 mm 5 mps 727 mmHg 50%
    14:00 +10°C° 0 mm 5 mps 727 mmHg 48%
    15:00 +11°C° 0 mm 4 mps 727 mmHg 47%
    16:00 +11°C° 0 mm 4 mps 727 mmHg 46%
    17:00 +10°C° 0 mm 4 mps 728 mmHg 50%
    18:00 +8°C° 0 mm 3 mps 728 mmHg 54%
    19:00 +7°C° 0 mm 2 mps 728 mmHg 58%
    20:00 +6°C° 0 mm 2 mps 729 mmHg 61%
    21:00 +6°C° 0 mm 2 mps 729 mmHg 64%
    22:00 +5°C° 0 mm 2 mps 729 mmHg 66%
    23:00 +5°C° 0 mm 2 mps 729 mmHg 68%

    30 September, Sunday

    Time Temperature Precipitation Wind Pressure Humidity
    00:00 +5°C° 0 mm 1 mps 729 mmHg 70%
    01:00 +5°C° 0 mm 1 mps 729 mmHg 71%
    02:00 +4°C° 0 mm 1 mps 729 mmHg 73%
    03:00 +4°C° 0 mm 1 mps 728 mmHg 74%
    04:00 +4°C° 0 mm 1 mps 728 mmHg 75%
    05:00 +4°C° 0 mm 1 mps 728 mmHg 73%
    06:00 +4°C° 0 mm 2 mps 728 mmHg 71%
    07:00 +4°C° 0 mm 2 mps 728 mmHg 70%
    08:00 +6°C° 0 mm 2 mps 728 mmHg 61%
    09:00 +9°C° 0 mm 3 mps 728 mmHg 52%
    10:00 +11°C° 0 mm 3 mps 728 mmHg 44%
    11:00 +12°C° 0 mm 3 mps 728 mmHg 40%
    12:00 +13°C° 0 mm 3 mps 727 mmHg 37%
    13:00 +15°C° 0 mm 2 mps 727 mmHg 34%
    14:00 +15°C° 0 mm 2 mps 726 mmHg 37%
    15:00 +14°C° 0 mm 2 mps 725 mmHg 40%
    16:00 +14°C° 0 mm 2 mps 725 mmHg 43%
    17:00 +12°C° 0 mm 2 mps 725 mmHg 49%
    18:00 +9°C° 0 mm 2 mps 724 mmHg 55%
    19:00 +7°C° 0 mm 2 mps 724 mmHg 62%
    20:00 +7°C° 0 mm 2 mps 724 mmHg 64%
    21:00 +6°C° 0 mm 2 mps 723 mmHg 65%
    22:00 +6°C° 0 mm 2 mps 723 mmHg 67%
    23:00 +6°C° 0 mm 2 mps 723 mmHg 68%

    1 October, Monday

    Time Temperature Precipitation Wind Pressure Humidity
    00:00 +6°C° 0 mm 2 mps 722 mmHg 68%
    01:00 +7°C° 0 mm 1 mps 722 mmHg 69%
    02:00 +6°C° 0 mm 2 mps 721 mmHg 70%
    03:00 +6°C° 0 mm 2 mps 721 mmHg 71%
    04:00 +6°C° 0 mm 2 mps 720 mmHg 73%
    05:00 +7°C° 0 mm 2 mps 720 mmHg 72%
    06:00 +7°C° 0 mm 2 mps 720 mmHg 72%
    07:00 +8°C° 0 mm 2 mps 719 mmHg 72%
    08:00 +10°C° 0 mm 2 mps 719 mmHg 66%
    09:00 +13°C° 0 mm 3 mps 719 mmHg 61%
    10:00 +16°C° 0 mm 3 mps 719 mmHg 55%
    11:00 +17°C° 0 mm 3 mps 719 mmHg 53%
    12:00 +18°C° 0 mm 3 mps 718 mmHg 51%
    13:00 +18°C° 0 mm 3 mps 718 mmHg 49%
    14:00 +18°C° 0 mm 3 mps 718 mmHg 52%
    15:00 +17°C° 0 mm 2 mps 717 mmHg 55%
    16:00 +17°C° 0 mm 2 mps 717 mmHg 59%
    17:00 +16°C° 0 mm 2 mps 717 mmHg 63%
    18:00 +14°C° 0 mm 2 mps 717 mmHg 68%
    19:00 +13°C° 0 mm 2 mps 717 mmHg 73%
    20:00 +13°C° 0 mm 1 mps 717 mmHg 74%
    21:00 +12°C° 0 mm 1 mps 717 mmHg 75%
    22:00 +12°C° 0 mm 1 mps 718 mmHg 76%
    23:00 +12°C° 0 mm 1 mps 718 mmHg 77%
    Show more